Regional Weather Roundup
Issued by NWS

Home | Current Version | Previous Version | Graphics & Text | Print | Product List | Glossary On
Versions: 1 2 3 4 5 6 7 8 9 10 11 12 13 14 15 16 17 18 19 20 21 22 23 24 25 26 27 28 29 30 31 32 33 34 35 36 37 38 39 40 41 42 43 44 45 46 47 48 49 50
000
ASUS43 KBIS 210202
RWRND

NORTH DAKOTA REGIONAL WEATHER ROUNDUP
NATIONAL WEATHER SERVICE BISMARCK ND
900 PM CDT THU JUL 20 2017

NOTE: "FAIR" INDICATES FEW OR NO CLOUDS BELOW 12,000 FEET WITH NO
SIGNIFICANT WEATHER AND/OR OBSTRUCTIONS TO VISIBILITY.


NDZ001>003-009>011-017-210300-
NORTHWEST NORTH DAKOTA

CITY           SKY/WX    TMP DP  RH WIND       PRES   REMARKS
WILLISTON      CLOUDY    82  58  43 NE17      29.83R
MINOT          PTCLDY    74  58  57 E12       29.87F
MINOT AFB      CLOUDY    73  56  53 SE20      29.83F
$$

NDZ018>021-031>035-040>046-210300-
SOUTHWEST NORTH DAKOTA

CITY           SKY/WX    TMP DP  RH WIND       PRES   REMARKS
BISMARCK       RAIN      80  61  52 N5        29.97R
DICKINSON      CLOUDY    71  62  73 SE17      29.82F
GARRISON         N/A     75  61  61 NE9       29.88R
HETTINGER ARPT CLOUDY    73  58  59 S20G32    29.85F
$$

NDZ004>008-012>016-024-026-027-054-210300-
NORTHEAST NORTH DAKOTA

CITY           SKY/WX    TMP DP  RH WIND       PRES   REMARKS
GRAND FORKS    CLOUDY    80  63  55 E3        29.91S
GRND FRKS AFB  MOCLDY    77  64  63 SE6       29.92S
DEVILS LAKE    CLOUDY    78  67  68 SE12      29.91S
$$

NDZ022-023-025-028>030-036>039-047>053-210300-
SOUTHEAST NORTH DAKOTA

CITY           SKY/WX    TMP DP  RH WIND       PRES   REMARKS
FARGO          CLOUDY    79  70  74 E6        29.91S
JAMESTOWN      CLOUDY    76  68  76 E3        29.94R
$$





USA.gov is the U.S. government's official web portal to all federal, state and local government web resources and services.